Regional Weather Roundup
Issued by NWS

Home | Current Version | Previous Version | Text Only | Print | Product List | Glossary On
Versions: 1 2 3 4 5 6 7 8 9 10 11 12 13 14 15 16 17 18 19 20 21 22 23 24 25 26 27 28 29 30 31 32 33 34 35 36 37 38 39 40 41 42 43 44 45 46 47 48 49 50
000
ASUS43 KIND 121800
RWRIN

WEATHER ROUNDUP FOR INDIANA
NATIONAL WEATHER SERVICE INDIANAPOLIS IN
200 PM EDT WED AUG 12 2020

NOTE: "FAIR" INDICATES FEW OR NO CLOUDS BELOW 12,000 FEET WITH NO
SIGNIFICANT WEATHER AND/OR OBSTRUCTIONS TO VISIBILITY.

* - STATION DOES NOT REPORT WEATHER SUCH AS PRECIPITATION OR FOG.

+ - STATION NOT QUALITY CONTROLLED BY THE NATIONAL WEATHER SERVICE.
    USE DATA WITH CAUTION...ESPECIALLY DEWPOINT AND RELATIVE
    HUMIDITY OBSERVATIONS.

INZ001>003-010>013-019-020-121900-
NORTHWEST INDIANA

CITY           SKY/WX    TMP DP  RH WIND       PRES   REMARKS
GARY /AIRPORT/ MOSUNNY   77  63  61 NE8       30.12F
KNOX *+        MOSUNNY   81  61  50 S7        30.12R
LA PORTE +     MOSUNNY   80  62  53 E3        30.13S
6HR MIN TEMP:  59; 6HR MAX TEMP:  80;

MONTICELLO +   MOSUNNY   80  65  59 SE3       30.10S
6HR MIN TEMP:  62; 6HR MAX TEMP:  80;

RENSSELAER +   MOSUNNY   79  63  57 E7        30.11F

$$

LMZ046-743>745-121900-
SOUTHERN LAKE MICHIGAN

STATION/POSITION TIME  TEMP    WIND        PRES    WAVE
                       AIR SEA DIR/SP/G            HT
                 (UTC) (F)     (DEG/KT/KT) (MB)    (FT)
MICHIGAN CITY    1740   74      20/ 10/ 11   N/A
5NW MICH CITY    1750   74 74                N/A     1

$$

INZ004-005-014>016-021>024-121900-
NORTH CENTRAL INDIANA

CITY           SKY/WX    TMP DP  RH WIND       PRES   REMARKS
GOSHEN         MOSUNNY   81  60  48 SE7       30.12S
6HR MIN TEMP:  60; 6HR MAX TEMP:  83;

ROCHESTER +    MOSUNNY   82  61  47 E9        30.12S
SOUTH BEND     MOSUNNY   81  59  47 E8        30.12S

$$

INZ006>009-017-018-025>027-121900-
NORTHEAST INDIANA

CITY           SKY/WX    TMP DP  RH WIND       PRES   REMARKS
ANGOLA *+      MOSUNNY   77  57  50 E5G13     30.13S
AUBURN +       PTSUNNY   81  59  47 E9        30.13S
FORT WAYNE     CLOUDY    81  63  54 E10       30.12F
6HR MIN TEMP:  64; 6HR MAX TEMP:  81;

HUNTINGTON +   PTSUNNY  N/A N/A N/A E6        30.12S
KENDALLVILLE + FAIR      80  62  54 E5        30.13F

$$

INZ028-029-035-036-043>045-051>053-121900-
WEST CENTRAL INDIANA

CITY           SKY/WX    TMP DP  RH WIND       PRES   REMARKS
CRAWFORDSVL +  PTSUNNY   79  67  68 CALM      30.09S
6HR MIN TEMP:  61; 6HR MAX TEMP:  80;

LAFAYETTE      MOSUNNY   83  65  54 VRB3      30.09R
6HR MIN TEMP:  63; 6HR MAX TEMP:  84;

TERRE HAUTE    MOSUNNY   85  70  60 NW5       30.07S
6HR MIN TEMP:  68; 6HR MAX TEMP:  85;


$$

INZ030>032-037>040-046>048-054>057-064-065-121900-
CENTRAL INDIANA

CITY           SKY/WX    TMP DP  RH WIND       PRES   REMARKS
COLUMBUS       MOSUNNY   82  68  61 SE5       30.07F
FRANKFORT +    PTSUNNY  N/A N/A N/A SE6       30.12R
GREENWOOD *+   CLOUDY    80  72  77 CALM      30.09S
INDIANAPOLIS   CLOUDY    81  71  71 SE8       30.07F
6HR MIN TEMP:  69; 6HR MAX TEMP:  81;

-EAGLE CREEK   PTSUNNY   82  69  64 VRB5      30.07F
6HR MIN TEMP:  69; 6HR MAX TEMP:  82;

KOKOMO +       PTSUNNY   80  67  64 E8        30.11F
6HR MIN TEMP:  61; 6HR MAX TEMP:  81;

MT COMFORT *+  CLOUDY    79  75  89 SE3       30.10S
SHELBYVILLE    CLOUDY    83  69  62 E6        30.07F
6HR MIN TEMP:  71; 6HR MAX TEMP:  83;


$$

INZ033-034-041-042-049-050-058-059-121900-
EAST CENTRAL INDIANA

CITY           SKY/WX    TMP DP  RH WIND       PRES   REMARKS
MUNCIE         CLOUDY    81  67  62 E5        30.10F
6HR MIN TEMP:  66; 6HR MAX TEMP:  82;

PORTLAND +     PTSUNNY   81  57  44 CALM      30.11S
RICHMOND +     FAIR      81  70  69 NE3       30.11S

$$

INZ060-061-067>069-081>083-085>088-121900-
SOUTHWEST INDIANA

CITY           SKY/WX    TMP DP  RH WIND       PRES   REMARKS
EVANSVILLE     CLOUDY    84  71  65 E3        30.05S
6HR MIN TEMP:  74; 6HR MAX TEMP:  84; 6HR PCP: TRACE;

HUNTINGBURG +  CLOUDY    80  74  81 CALM      30.06S
6HR MIN TEMP:  71; 6HR MAX TEMP:  81;

WASHINGTON +   PTSUNNY  N/A N/A N/A CALM      30.05S

$$

INZ062-063-066-070>080-084-089>092-121900-
SOUTH CENTRAL AND SOUTHEAST INDIANA

CITY           SKY/WX    TMP DP  RH WIND       PRES   REMARKS
BATESVILLE +   MOSUNNY   81  72  74 CALM      30.09S
BEDFORD +      CLOUDY    81  70  69 E3        30.06F
BLOOMINGTON    PTSUNNY   82  71  69 VRB3      30.07F
6HR MIN TEMP:  70; 6HR MAX TEMP:  83;

FRENCH LICK *+ FAIR      79  70  73 E3        30.07S
JEFFERSONVL +  FAIR      85  72  66 CALM      30.05F HX  90
6HR MIN TEMP:  72; 6HR MAX TEMP:  85;


$$





USA.gov is the U.S. government's official web portal to all federal, state and local government web resources and services.